Preview of NWS' New Version of Forecast
This preview is not operational and should not be used for support decisions.
Latest weather observations around

Huntsville, Huntsville International / Jones Field (KHSV)

Using English Units (Switch to International System of Units)
Date/ Time (CST) Wind (mph) Vis. (mi) Weather Sky Cond. Temp (°F) Rel. Humidity Wind Chill (°F) Heat Index (°F) Pressure Precip. (in)
Air Dwpt 6 hour Altimeter (inHg) Sea level (inHg) 1 hr 3 hr 6 hr
Max Min
Dec 17 12:53 W 5 10 Clear CLR 54 42     64%     30.19 30.19      
Dec 17 11:53 SW 3 10 Mostly Clear FEW008 49 44     83% 48   30.22 30.22      
Dec 17 11:37 W 3 10 Mostly Clear FEW007 48 45     89% 47   30.23        
Dec 17 11:21 W 5 7 Mostly Cloudy BKN006 46 44     93% 44   30.24        
Dec 17 11:14 WSW 5 2.5 Fog/Mist BKN006 47 45     93% 45   30.24        
Dec 17 10:53 SW 3 1.5 Fog/Mist OVC004 45 44     97% 44   30.25 30.25      
Dec 17 10:11 Calm 0.12 Fog VV002 45 44     97%     30.26        
Dec 17 09:53 Calm 0.12 Fog VV002 44 44     100%     30.26 30.27      
Dec 17 08:53 W 3 0.12 Fog VV002 41 41     100% 39   30.27 30.27      
Dec 17 07:53 WNW 6 0.12 Fog VV002 41 40     96% 37   30.25 30.25      
Dec 17 07:29 Calm 0.12 Fog VV002 39 39     100%     30.24        
Dec 17 07:11 Calm 0.06 Fog VV001 39 39     100%     30.23        
Dec 17 06:53 Calm 0.12 Fog VV002 39 38     96%     30.22 30.22      
Dec 17 05:53 Calm 0.12 Fog SKC 37 37     100%     30.22 30.22      
Dec 17 05:42 Calm 0.12 Fog OVC001 39 39     100%     30.21        
Dec 17 05:33 WNW 3   Clear   39 38     96% 37   30.22        
Dec 17 05:14 Calm   Clear   39 39     100%     30.2        
Dec 17 04:53 Calm   Clear   39 38     96%     30.2 30.19      
Dec 17 03:53 NNW 3   Clear   40 39     97% 38   30.19 30.19      
Dec 17 02:53 Calm   Clear   44 42     93%     30.2 30.2      
Dec 17 01:53 WNW 3   Clear   43 42     97% 41   30.2 30.2      
Dec 17 00:53 W 3   Clear   44 42     93% 43   30.21 30.2      
Dec 16 23:53 W 5 10 Partly Cloudy SCT140 43 42     97% 40   30.21 30.21      
Dec 16 22:53 Calm 10 Mostly Clear FEW200 44 41     89%     30.22 30.22      
Dec 16 21:53 WNW 3 10 Clear CLR 46 43     89% 45   30.22 30.22      
Dec 16 20:53 WNW 3 10 Mostly Clear FEW250 48 43     83% 47   30.22 30.22      
Dec 16 19:53 WNW 5 10 Mostly Clear FEW250 50 44     80%     30.21 30.21      
Dec 16 18:53 WNW 3 10 Partly Cloudy SCT250 50 45     83%     30.2 30.2      
Dec 16 17:53 W 5 10 Mostly Clear FEW250 52 45     77%     30.19 30.18      
Dec 16 16:53 W 6 10 Partly Cloudy SCT250 54 46     74%     30.18 30.17      
Dec 16 15:53 W 5 10 Mostly Cloudy BKN250 60 45     57%     30.16 30.15      
Dec 16 14:53 W 7 10 Mostly Cloudy FEW025 BKN250 60 47     62%     30.16 30.16      
Dec 16 13:53 N 9 10 Mostly Cloudy FEW023 BKN250 61 44     54%     30.16 30.16      
Dec 16 12:53 NNW 8 10 Mostly Cloudy SCT022 BKN250 59 47     64%     30.16 30.16      
Dec 16 12:44 NNW 9 10 Mostly Cloudy SCT022 BKN250 59 47     64%     30.17        
Dec 16 11:53 N 8 10 Mostly Cloudy SCT015 BKN020 56 47     72%     30.18 30.17      
Dec 16 10:53 NNW 9 10 Cloudy BKN015 OVC020 53 47     80%     30.19 30.19      
Dec 16 10:51 NNW 9 10 Cloudy BKN015 OVC020 54 46     77%     30.19        
Dec 16 09:53 WNW 9 10 Cloudy OVC014 51 47     86%     30.19 30.19      
Dec 16 08:53 NW 8 10 Cloudy OVC013 51 46     83%     30.19 30.19      
Dec 16 07:53 NW 8 10 Mostly Cloudy BKN011 49 46     90% 45   30.15 30.15      
Dec 16 06:53 WNW 13 10 Cloudy BKN010 OVC011 49 45     86% 44   30.15 30.15      
Dec 16 06:23 WNW 14 10 Cloudy OVC010 49 46     90% 44   30.14        
Dec 16 05:53 WNW 8 10 Cloudy OVC007 49 46     90% 45   30.12 30.12     0
Dec 16 05:43 W 9 10 Cloudy OVC007 49 46     90% 45   30.12        
Dec 16 04:53 W 11   Clear   49 46     90% 44   30.1 30.1      
Dec 16 03:53 W 10   Clear   49 47     93% 45   30.08 30.08 0    
Dec 16 02:53 W 7   Clear   49 47     93% 46   30.08 30.08      
Dec 16 01:53 W 6   Clear   49 47     93% 46   30.07 30.07      
Dec 16 00:53 WSW 8   Clear   49 47     93% 45   30.05 30.05      
Dec 16 00:07 W 7   Clear   49 47     93% 46   30.06        
Dec 15 23:53 W 7 8 Cloudy BKN006 OVC013 49 47     93% 46   30.06 30.05     0
Dec 15 22:53 WSW 8 6 Fog/Mist BKN006 OVC013 49 47     93% 45   30.05 30.05 0    
Dec 15 22:40 WSW 8 6 Light Rain and Fog/Mist BKN006 OVC011 49 47     93% 45   30.06   0    
Dec 15 21:53 W 8 3 Light Rain and Fog/Mist SCT005 OVC011 49 48     97% 45   30.05 30.04 0    
Dec 15 21:02 SW 5 3 Light Drizzle and Fog/Mist FEW005 OVC011 49 48     97% 47   30.04   0    
Dec 15 20:53 W 5 2 Light Drizzle and Fog/Mist FEW005 OVC011 49 47     93% 47   30.04 30.04 0 0  
Dec 15 19:53 W 3 2 Clear   49 47     93% 48   30.02 30.01 0    
Dec 15 19:17 WSW 3 2 Light Drizzle and Fog/Mist FEW006 OVC010 48 47     96% 47   30   0    
Dec 15 18:53 SW 5 2 Fog/Mist BKN006 OVC010 48 47     96% 46   29.99 29.99 0    
Dec 15 17:53 SSW 3 2 Light Drizzle and Fog/Mist BKN006 OVC014 48 47     96% 47   29.98 29.98 0   0
Dec 15 17:42 SSW 3 2 Light Drizzle and Fog/Mist BKN006 OVC014 48 47     96% 47   29.98   0    
Dec 15 17:27 SSW 3 2 Fog/Mist FEW006 OVC014 48 47     96% 47   29.97   0    
Dec 15 16:53 SW 6 2 Light Drizzle and Fog/Mist OVC019 48 47     96% 45   29.96 29.96 0    
Dec 15 16:31 SW 10 10 Cloudy SCT020 OVC024 49 46     90% 45   29.95        
Dec 15 15:53 SW 10 10 Cloudy SCT042 OVC047 50 46     86%     29.94 29.94      
Dec 15 14:53 WSW 9 10 Mostly Cloudy SCT042 BKN050 53 43     69%     29.92 29.91      
Dec 15 13:53 W 11 10 Mostly Cloudy FEW031 FEW040 BKN050 55 43     64%     29.9 29.89      
Dec 15 12:53 WSW 14 10 Cloudy FEW025 OVC050 53 43     69%     29.9 29.89      
Dec 15 12:00 WSW 8 10 Mostly Cloudy FEW026 BKN046 53 45     74%     29.89        
Dec 15 11:53 W 6 10 Mostly Cloudy FEW024 BKN028 BKN037 53 45     74%     29.89 29.88     0
Dec 15 11:40 SW 9 10 Mostly Cloudy FEW024 BKN028 BKN037 53 45     74%     29.9        
Dec 15 10:53 SW 9 10 Mostly Cloudy FEW021 SCT028 BKN034 52 46     80%     29.91 29.91      
Dec 15 09:53 S 11 10 Mostly Cloudy FEW020 BKN041 51 46     83%     29.91 29.91      
Dec 15 08:53 S 5 10 Mostly Cloudy BKN049 BKN180 49 46     90% 47   29.91 29.9   0  
Dec 15 07:53 ESE 3 10 Cloudy BKN041 OVC075 47 46     97% 46   29.9 29.89 0    
Dec 15 06:53 Calm 10 Light Rain BKN037 OVC070 47 45     93%     29.88 29.88 0    
Dec 15 06:42 WSW 3 10 Cloudy BKN037 OVC070 47 45     93% 46   29.88   0    
Dec 15 05:53 SW 7 10 Light Rain FEW013 OVC024 49 44     83% 46   29.87 29.87 0   0
Dec 15 05:41 SSW 5 10 Light Rain FEW013 OVC024 49 45     86% 47   29.86   0    
Dec 15 04:53 SW 8   Clear   50 43     77%     29.85 29.84      
Dec 15 03:53 WSW 9   Clear   51 45     79%     29.83 29.82      
Dec 15 02:53 WSW 6   Clear   52 47     83%     29.83 29.82      
Dec 15 01:53 SW 7   Clear   52 49     89%     29.82 29.82      
Dec 15 00:53 S 9   Clear   55 53     93%     29.81 29.8      
Dec 15 00:05 SSE 8   Clear   55 53     93%     29.81        
Dec 14 23:53 SE 7 10 Cloudy OVC014 55 53     93%     29.81 29.8 0   0
Dec 14 23:11 SE 8 10 Cloudy OVC014 55 53     93%     29.82   0    
Dec 14 22:53 SE 10 6 Light Rain and Fog/Mist OVC016 55 53     93%     29.82 29.82 0    
Dec 14 21:53 SE 14 10 Cloudy OVC020 55 53     93%     29.82 29.82 0    
Dec 14 20:55 ESE 10 10 Cloudy SCT013 OVC021 54 53     97%     29.82        
Dec 14 20:53 ESE 10 10 Cloudy BKN013 OVC021 54 53     97%     29.82 29.81   0  
Dec 14 20:37 ESE 10 10 Cloudy OVC011 55 53     93%     29.83        
Dec 14 19:53 SE 5 10 Cloudy OVC009 55 53     93%     29.84 29.83 0    
Dec 14 19:23 SSE 8 7 Light Rain OVC008 55 53     93%     29.83   0    
Dec 14 19:08 SE 10 6 Light Rain and Fog/Mist OVC010 55 53     93%     29.82   0    
Dec 14 18:53 SE 10 3 Rain and Fog/Mist BKN009 OVC016 55 53     93%     29.83 29.82 0    
Dec 14 18:23 SE 13 9 Light Rain OVC009 56 53     90%     29.83   0    
Dec 14 17:53 SE 10 10 Cloudy OVC010 56 53     90%     29.82 29.81     0
Dec 14 16:53   10 Cloudy OVC013 56 53     90%     29.81 29.8      
Dec 14 16:18   10 Cloudy OVC015 56 53     90%     29.82        
Dec 14 15:53   10 Cloudy OVC012 56 53     90%     29.82 29.81      
Dec 14 15:03   10 Mostly Cloudy BKN010 56 53     90%     29.81        
Dec 14 14:53   10 Mostly Cloudy SCT010 BKN090 56 54     93%     29.8 29.8   0  
Dec 14 13:53   10 Mostly Cloudy SCT009 SCT090 BKN170 55 52     89%     29.8 29.79 0    
Dec 14 13:07   3 Rain and Fog/Mist SCT007 SCT015 OVC080 53 52     96%     29.86   0    
Dec 14 12:53   3 Rain and Fog/Mist SCT011 BKN060 OVC095 53 52     96%     29.85 29.85 0    
Dec 14 11:53 SE 14 10 Light Rain OVC011 54 52     93%     29.89 29.88 0   1
Dec 14 11:10   8 Light Rain BKN011 OVC016 54 52     93%     29.9   0    
Dec 14 10:53 ESE 14 8 Cloudy BKN009 OVC016 54 52     93%     29.91 29.91 0    
Dec 14 10:27 ESE 13 2.5 Light Rain and Fog/Mist BKN009 OVC015 54 52     93%     29.93   0    
Dec 14 09:53 SE 14 2.5 Rain and Fog/Mist FEW006 BKN011 OVC024 53 52     96%     29.94 29.93 0    
Dec 14 09:12 SE 5 1.5 Rain and Fog/Mist BKN006 BKN013 OVC031 53 52     96%     29.94   0    
Dec 14 08:56 ESE 9 1.5 Rain and Fog/Mist SCT006 BKN011 OVC047 53 52     96%     29.94   0    
Dec 14 08:53 ESE 8 1.5 Rain and Fog/Mist SCT006 SCT011 OVC032 53 52     96%     29.94 29.93 1 1  
Dec 14 08:19 E 8 1.5 Heavy Rain and Fog/Mist FEW006 BKN030 OVC039 53 52     96%     29.93   0    
Dec 14 07:53   1.5 Heavy Rain and Fog/Mist SCT009 OVC022 52 51     97%     29.93 29.92 0    
Dec 14 07:42 ESE 10 1.5 Heavy Rain and Fog/Mist BKN009 OVC015 52 51     97%     29.94   0    
Dec 14 07:19 ESE 8 3 Light Rain and Fog/Mist BKN009 BKN014 OVC034 52 51     97%     29.92   0    
Dec 14 07:09 ESE 10 3 Light Rain and Fog/Mist FEW008 SCT012 OVC036 52 50     93%     29.91   0    
Dec 14 06:53 ESE 13 2.5 Rain and Fog/Mist BKN012 OVC055 52 50     93%     29.92 29.91 0    
Dec 14 06:48   3 Rain and Fog/Mist BKN012 OVC055 52 50     94%     29.91   0    
Dec 14 05:53 ESE 13 10 Cloudy OVC015 54 48     80%     29.93 29.92     0
Dec 14 04:53 ESE 15   Cloudy OVC018 54 47     77%     29.93 29.92      
Dec 14 04:23 ESE 15   Cloudy BKN020 OVC030 53 47     80%     29.94        
Dec 14 04:16 ESE 13   Cloudy SCT020 BKN030 OVC070 53 47     80%     29.94        
Dec 14 04:03 ESE 13   Cloudy SCT020 BKN026 OVC070 53 46     77%     29.94        
Dec 14 03:53 E 14   Cloudy SCT024 BKN031 OVC070 53 46     77%     29.95 29.94 0    
Dec 14 02:53 ESE 15   Cloudy FEW060 BKN070 OVC085 53 45     74%     29.97 29.96   0  
Dec 14 01:53 ESE 13   Cloudy OVC075 52 45     77%     29.98 29.97 0    
Dec 14 00:53 ESE 13   Cloudy FEW034 BKN060 OVC090 53 43     69%     29.99 29.98      
Dec 13 23:53 ESE 11 10 Cloudy FEW065 SCT075 OVC090 52 43     71%     29.99 29.99 0   0
Dec 13 22:53   10 Light Rain FEW055 BKN090 OVC110 52 42     69%     30.01 30 0    
Dec 13 21:53   10 Light Rain OVC100 51 41     68%     30.01 30.01 0    
Dec 13 20:53   10 Light Rain BKN080 OVC100 53 38     56%     30.03 30.03 0 0  
Dec 13 19:53   10 Mostly Cloudy BKN085 53 37     54%     30.04 30.04      
Dec 13 18:53 SE 15 10 Cloudy OVC080 54 37     53%     30.07 30.06      
Dec 13 17:53 ESE 13 10 Mostly Cloudy SCT060 BKN090 54 36     50%     30.06 30.06      
Dec 13 16:53 SSE 10 10 Cloudy BKN050 OVC060 55 38     52%     30.06 30.06      
Dec 13 15:53 ESE 10 10 Cloudy BKN060 OVC085 57 39     51%     30.06 30.05      
Dec 13 14:53 ESE 13 10 Mostly Cloudy BKN047 BKN055 58 40     51%     30.06 30.06      
Dec 13 13:53 SE 15 10 Mostly Cloudy BKN042 59 41     51%     30.07 30.06      
Dec 13 12:53 ESE 11 10 Cloudy BKN041 OVC060 58 42     55%     30.08 30.08      
Dec 13 11:53 SSE 16 10 Mostly Cloudy FEW038 BKN060 59 41     51%     30.1 30.1      
Dec 13 10:53 SSE 11 10 Cloudy BKN039 OVC046 55 41     59%     30.13 30.13      
Dec 13 09:53 6 10 Mostly Cloudy BKN030 BKN045 BKN250 52 40     63%     30.15 30.15      
Dec 13 08:53 ESE 10 10 Mostly Cloudy FEW028 BKN250 50 40     68%     30.13 30.13      
Dec 13 08:33 SE 6 10 Mostly Cloudy BKN026 BKN250 49 41     74% 46   30.13        
Dec 13 07:53 ESE 8 10 Mostly Cloudy FEW018 FEW150 BKN250 46 40     79% 42   30.12 30.12      
Dec 13 06:53 E 6 10 Cloudy FEW018 SCT140 OVC250 44 38     79% 41   30.12 30.12      
Dec 13 05:53 E 7 10 Cloudy FEW024 OVC140 44 38     79% 40   30.11 30.11      
Dec 13 04:53 ESE 7 10 Clear CLR 44 38     79% 40   30.11 30.11      
Dec 13 03:53 SSE 3 10 Cloudy BKN075 OVC090 46 39     76% 45   30.11 30.11      
Dec 13 02:53 ESE 5 10 Cloudy FEW070 OVC090 46 38     73% 44   30.11 30.11      
Dec 13 01:53 E 5 10 Cloudy OVC090 45 38     76% 43   30.12 30.11      
Dec 13 00:53 SE 7 10 Mostly Clear FEW095 46 38     73% 42   30.11 30.11      
Dec 12 23:53 SE 8 10 Cloudy FEW065 OVC190 45 37     74% 41   30.12 30.12      
Dec 12 22:53 E 6 10 Cloudy OVC060 45 35     68% 42   30.13 30.12      
Dec 12 21:53 SE 3 10 Cloudy OVC065 44 33     65% 43   30.13 30.14      
Dec 12 20:53 ESE 3 10 Cloudy BKN065 OVC250 43 33     68% 41   30.14 30.14      
Dec 12 19:53 S 3 10 Cloudy OVC080 47 33     58% 46   30.13 30.14      
Dec 12 18:53 SSE 8 10 Cloudy FEW050 BKN070 OVC200 43 33     68% 38   30.14 30.15      
Dec 12 17:53 SE 6 10 Cloudy SCT048 OVC200 45 33     63% 42   30.14 30.14      
Dec 12 16:53 SE 6 10 Cloudy BKN050 OVC200 47 33     58% 44   30.13 30.13      
Dec 12 15:53 S 5   Cloudy FEW040 SCT180 OVC200 49 32     52% 47   30.13 30.14      
Dec 12 14:53 S 9 10 Cloudy FEW040 OVC200 51 31     46%     30.12 30.12      
Dec 12 13:53 SSW 11 10 Cloudy FEW040 SCT200 OVC250 52 30     43%     30.11 30.11      
Dec 12 12:53 S 9 10 Cloudy FEW040 OVC210 51 31     46%     30.13 30.14      
Dec 12 11:53 SW 11 10 Cloudy FEW040 OVC190 50 29     44%     30.16 30.16      
Dec 12 10:53 SSW 8 10 Cloudy FEW040 OVC210 48 30     50% 44   30.19 30.19      
Dec 12 08:53 SE 5 10 Cloudy SCT200 OVC250 39 36     89% 36   30.21 30.22      
Dec 12 07:53 E 5 10 Cloudy FEW200 OVC250 35 34     96% 31   30.22 30.23      
Dec 12 06:53 SSE 6 10 Cloudy FEW170 OVC200 33 32     96% 28   30.21 30.22      
Dec 12 05:53 SE 5 10 Cloudy OVC200 33 32     96% 29   30.22 30.22      
Dec 12 04:53 ESE 7 8 Clear CLR 32 32     100% 26   30.21 30.22      
Dec 12 03:53 E 5 7 Clear CLR 32 31     96% 27   30.22 30.22      
Dec 12 02:53 ESE 5 9 Clear CLR 32 30     92% 27   30.24 30.24      
Dec 12 01:53 E 5 7 Clear CLR 30 30     100% 25   30.24 30.24      
Dec 12 00:53 Calm 9 Clear CLR 32 31     96%     30.24 30.25      
Dec 11 23:53 E 3 10 Clear CLR 31 29     92% 28   30.24 30.25      
Dec 11 22:53 ESE 5 10 Clear CLR 30 28     92% 25   30.25 30.26      
Dec 11 21:53 ESE 5 10 Clear CLR 31 29     92% 26   30.25 30.26      
Dec 11 20:53 E 5 10 Clear CLR 32 31     96% 27   30.26 30.27      
Dec 11 19:53 SE 3 10 Clear CLR 34 32     92% 31   30.28 30.29      
Dec 11 18:53 ESE 3 10 Clear CLR 35 32     88% 32   30.29 30.3      
Dec 11 17:53 ESE 3 10 Clear CLR 39 29     67% 37   30.28 30.29      
Dec 11 16:53 Calm 10 Clear CLR 45 30     56%     30.29 30.29      
Dec 11 15:53 Calm 10 Clear CLR 46 29     51%     30.29 30.3      
Dec 11 14:53 SW 5 10 Mostly Clear FEW250 45 31     58% 43   30.29 30.29      
Dec 11 13:53 SW 5 10 Clear CLR 44 30     58% 41   30.3 30.3      
Dec 11 12:53 S 5 10 Clear CLR 41 31     67% 38   30.31 30.32      
Dec 11 11:53 S 3 10 Mostly Clear FEW012 40 36     86% 38   30.34 30.35      
Dec 11 10:53 S 3 7 Mostly Clear FEW009 37 34     89% 35   30.38 30.39      
Dec 11 10:15 Calm 3 Fog/Mist SCT007 37 34     89%     30.4        
Dec 11 09:53 3 2.5 Fog/Mist SCT006 35 33     92% 32   30.4        
Dec 11 09:10 Calm 2 Fog/Mist SCT004 32 31     96%     30.4        
Dec 11 08:53 Calm 1.5 Fog/Mist FEW003 31 30     96%     30.4 30.41      
Dec 11 08:29 Calm 1.5 Fog/Mist FEW003 31 30     96%     30.39        
Dec 11 07:53 N 3 1.5 Fog/Mist CLR 29 28     96% 25   30.38 30.39      
Dec 11 06:53 WNW 3 1.5 Fog/Mist SKC 26 26     100% 22   30.37 30.38      
Dec 11 06:48 WNW 5 1 Fog/Mist SKC 27 27     100% 21   30.37        
Dec 11 06:33 WNW 5 0.75 Fog/Mist SKC 26 25     96% 20   30.37        
Dec 11 06:22 WNW 5 0.12 Fog SKC 26 25     96% 20   30.36        
Dec 11 06:13 NW 5 0.25 Fog SKC 25 25     100% 19   30.36        
Dec 11 05:53 NW 5 0.5 Fog SKC 26 26     100% 20   30.35 30.36      
Dec 11 05:41 WNW 5 0.75 Fog/Mist SKC 26 26     100% 20   30.34        
Dec 10 20:53 NNW 6 5 Fog/Mist CLR 35 35     100% 30   30.28 30.29      
Dec 10 19:53 NW 5 4 Fog/Mist CLR 36 36     100% 32   30.27 30.27      
Dec 10 18:53 NW 5 4 Fog/Mist FEW060 37 37     100% 33   30.26 30.27      
Dec 10 17:53 NW 6 5 Fog/Mist SCT040 OVC050 39 38     96% 35   30.24 30.24 0   0
Dec 10 16:53 NNW 7 5 Light Rain and Fog/Mist BKN048 OVC065 38 38     100% 33   30.23 30.24 0    
Dec 10 16:10 NNW 9 6 Fog/Mist SCT008 BKN045 OVC050 39 38     96% 33   30.22        
Dec 10 15:53 NNW 10 3 Fog/Mist BKN008 OVC040 39 39     100% 32   30.21 30.22 0    
Dec 10 15:08 NNW 6 5 Light Rain and Fog/Mist FEW008 SCT012 OVC040 39 39     100% 35   30.19   0    
Dec 10 15:00 NNW 6 4 Light Rain and Fog/Mist BKN010 OVC040 39 39     100% 35   30.19   0    
Dec 10 14:53 NNW 7 3 Light Rain and Fog/Mist BKN008 OVC040 39 39     100% 34   30.19 30.19 0 0  
Dec 10 14:01 NNW 7 3 Light Rain and Fog/Mist OVC007 39 39     100% 34   30.18   0    
Dec 10 13:53 N 6 3 Light Rain and Fog/Mist BKN008 OVC035 39 38     96% 35   30.18 30.19 0    
Dec 10 12:53 N 8 4 Light Rain and Fog/Mist OVC008 38 37     97% 32   30.18 30.19 0    
Dec 10 11:53 NNW 9 4 Light Rain and Fog/Mist OVC009 38 38     100% 31   30.18 30.19 0   0
Dec 10 11:35 NNW 11 4 Light Rain and Fog/Mist BKN009 OVC023 38 37     97% 30   30.19   0    
Dec 10 11:08 N 10 6 Light Rain and Fog/Mist BKN011 OVC026 39 36     89% 32   30.2   0    
Dec 10 10:53 N 9 6 Light Rain and Fog/Mist SCT011 BKN018 OVC026 40 36     86% 34   30.2 30.21 0    
Dec 10 09:53 NNE 6 9 Cloudy OVC010 41 38     89% 37   30.21 30.21      
Dec 10 09:16 N 10 6 Fog/Mist OVC010 39 37     93% 32   30.2        
Dec 10 08:53 N 8 7 Cloudy OVC009 39 37     93% 33   30.2 30.2   0  
Dec 10 07:53 N 8 6 Fog/Mist OVC007 38 37     97% 32   30.17 30.18 0    
Dec 10 07:24 N 7 2 Fog/Mist BKN007 OVC012 38 36     92% 33   30.16   0    
Dec 10 06:53 N 3 2 Light Drizzle and Fog/Mist OVC008 38 38     100% 36   30.16 30.16 0    
Dec 10 06:25 N 6 1.75 Light Drizzle and Fog/Mist BKN008 OVC013 37 37     100% 32   30.14   0    
Dec 10 06:06 N 8 2 Light Drizzle and Fog/Mist SCT007 OVC013 38 37     97% 32   30.13   0    
Dec 10 05:53 N 8 5 Light Drizzle and Fog/Mist OVC013 38 37     97% 32   30.13 30.14 0   0
Dec 10 04:53 N 7 7 Cloudy OVC010 38 38     100% 33   30.11 30.12      
Dec 10 03:53 N 7 8 Cloudy OVC012 38 38     100% 33   30.1 30.1      
Dec 10 02:53 N 6 7 Cloudy OVC012 38 38     100% 33   30.1 30.11      
Dec 10 01:53 N 9 8 Cloudy OVC012 39 39     100% 33   30.1 30.11      
Dec 10 01:16 N 7 9 Cloudy OVC010 39 39     100% 34   30.1        
Dec 10 00:53 N 8 9 Cloudy OVC009 39 39     100% 33   30.1 30.1      
Dec 10 00:05 NNW 6 7 Cloudy OVC009 38 38     100% 33   30.1        
Dec 09 23:53 NNW 7 8 Cloudy OVC010 38 38     100% 33   30.1 30.1     0
Dec 09 23:46 NNW 5 8 Cloudy OVC010 38 38     100% 34   30.1        
Dec 09 22:53 NNW 8 7 Cloudy OVC007 38 38     100% 32   30.1 30.1      
Dec 09 21:53 NNW 8 5 Fog/Mist OVC007 38 38     100% 32   30.1 30.1      
Dec 09 21:31 NNW 7 7 Fog/Mist OVC008 37 37     100% 32   30.1        
Dec 09 20:53 NNW 8 2 Fog/Mist OVC008 37 37     100% 31   30.09 30.1   0  
Dec 09 20:06 NNW 8 2.5 Fog/Mist BKN006 OVC011 37 37     100% 31   30.09        
Dec 09 19:53 NNW 8 2.5 Fog/Mist OVC008 37 37     100% 31   30.09 30.09      
Dec 09 19:13 NNW 10 2.5 Fog/Mist OVC006 38 38     100% 31   30.08        
Dec 09 18:53 NNW 9 2 Fog/Mist OVC008 38 38     100% 31   30.08 30.09 0    
Dec 09 18:40 NNW 9 2 Fog/Mist OVC008 38 38     100% 31   30.08   0    
Dec 09 17:53 NNW 8 5 Light Rain and Fog/Mist OVC007 38 38     100% 32   30.07 30.08 0   0
Dec 09 16:50 NNW 8 4 Light Rain and Fog/Mist BKN006 OVC014 38 38     100% 32   30.06 30.06 0    
Dec 09 16:49 NNW 7 4 Light Rain and Fog/Mist BKN006 OVC014 37 37     100% 32   30.06   0    
Dec 09 16:24 N 9 2 Light Rain and Fog/Mist BKN008 OVC012 39 39     100% 33   30.05   0    
Dec 09 15:53 N 8 1.5 Light Drizzle and Fog/Mist OVC007 39 38     96% 33   30.05 30.05 0    
Dec 09 15:20 N 11 1.5 Light Drizzle and Fog/Mist OVC009 39 38     96% 32   30.04   0    
Dec 09 15:11 N 10 2 Light Drizzle and Fog/Mist OVC009 39 38     96% 32   30.04   0    
Dec 09 14:55 N 11 9 Cloudy OVC008 40 38     93% 33   30.03        
Dec 09 14:53 N 11 2 Fog/Mist OVC008 40 38     93% 33   30.03 30.04   0  
Dec 09 13:53 N 11 2 Fog/Mist OVC006 40 39     97% 33   30.01 30.02 0    
Dec 09 13:21 N 14 2 Light Drizzle and Fog/Mist OVC006 41 40     96% 33   30.01   0    
Dec 09 12:53 N 13 2 Light Drizzle and Fog/Mist OVC008 43 41     93% 36   30 30 0    
Dec 09 12:33 NNW 9 3 Fog/Mist OVC008 43 41     93% 38   30        
Dec 09 12:16 N 10 8 Cloudy FEW009 OVC016 43 41     93% 37   30.01        
Dec 09 12:08 N 9 9 Cloudy OVC015 44 41     89% 39   30.01        
Dec 09 11:53 N 8 10 Cloudy OVC014 44 41     89% 40   30.02 30.02     0
Dec 09 11:02 N 7 9 Cloudy OVC012 43 41     93% 39   30.03        
Dec 09 10:53 N 7 8 Cloudy OVC009 43 41     93% 39   30.03 30.03 0    
Dec 09 10:08 NNE 5 2 Light Drizzle and Fog/Mist OVC007 43 42     97% 40   30.04   0    
Dec 09 09:53 NE 5 1.25 Light Drizzle and Fog/Mist OVC007 42 41     96% 39   30.04 30.04 0    
Dec 09 09:29 NE 5 1.5 Light Drizzle and Fog/Mist OVC007 42 41     96% 39   30.05   0    
Dec 09 08:53 ENE 5 2 Light Drizzle and Fog/Mist BKN007 OVC013 42 41     96% 39   30.04 30.04 0 0  
Dec 09 08:03 ENE 6 1.5 Light Drizzle and Fog/Mist BKN006 OVC011 42 41     96% 38   30.03   0    
Dec 09 07:53 ENE 9 0.75 Rain and Fog/Mist BKN005 OVC011 42 41     96% 37   30.03 30.03 0    
Dec 09 06:53 E 9 0.75 Light Drizzle and Fog/Mist BKN005 OVC013 42 42     100% 37   30.02 30.02 0    
Dec 09 05:59 SE 3 1.5 Light Rain and Fog/Mist BKN005 BKN014 OVC030 42 42     100% 40   30.02   0    
Dec 09 05:53 ESE 5 2 Light Rain and Fog/Mist FEW005 BKN014 OVC030 42 42     100% 39   30.02 30.02 0   0
Dec 09 05:49 E 6 2 Light Rain and Fog/Mist SCT005 BKN011 OVC030 43 43     100% 39   30.02   0    
Dec 09 05:48 E 7 3 Light Rain and Fog/Mist SCT005 BKN011 OVC030 43 43     100% 39   30.02   0    
Dec 09 05:37 E 8 2 Light Rain and Fog/Mist BKN005 BKN009 OVC024 43 42     97% 38   30.01   0    
Dec 09 04:53 ENE 7 1.75 Light Rain and Fog/Mist BKN007 OVC013 43 42     97% 39   30.01 30.01 0    
Dec 09 04:06 NNE 7 1.75 Light Rain and Fog/Mist BKN007 OVC013 43 43     100% 39   30   0    
Dec 09 03:53 NNE 7 2 Light Rain and Fog/Mist SCT007 OVC011 43 43     100% 39   30 30 0    
Dec 09 03:45 NE 7 2 Light Rain and Fog/Mist BKN007 BKN011 OVC016 43 43     100% 39   29.99   0    
Dec 09 03:33 NNE 6 1.25 Rain and Fog/Mist BKN009 OVC015 43 43     100% 39   29.99   0    
Dec 09 03:18 NNE 6 2 Light Rain and Fog/Mist OVC009 43 43     100% 39   30   0    
Dec 09 02:53 NNE 8 6 Light Rain and Fog/Mist BKN008 OVC016 43 43     100% 38   29.99 29.99 0 0  
Dec 09 02:45 NNE 9 4 Light Rain and Fog/Mist BKN010 BKN016 OVC028 43 43     100% 38   29.99   0    
Dec 09 02:30 NNE 8 2 Heavy Rain and Fog/Mist SCT016 OVC026 43 43     100% 38   29.98   0    
Dec 09 02:20 NE 9 3 Light Rain and Fog/Mist BKN018 OVC026 43 43     100% 38   29.97   0    
Dec 09 02:01 NNE 8 1 Heavy Rain and Fog/Mist BKN018 OVC023 44 43     96% 40   29.98   0    
Dec 09 01:53 WNW 9 2.5 Rain and Fog/Mist OVC020 44 43     96% 39   30.01 30.01 0    
Dec 09 00:53 NE 8 10 Cloudy OVC023 45 43     93% 41   29.98 29.98 0    
Dec 08 23:53 ENE 9 8 Light Rain BKN017 OVC022 44 43     96% 39   30 30 0   1
Dec 08 22:53 E 15 10 Cloudy OVC015 45 43     93% 38   29.99   0    
Dec 08 21:53 ENE 8 10 Cloudy OVC014 45 44     97% 41   30.08 30.08 0    
Dec 08 20:53 NE 7 4 Light Rain and Fog/Mist OVC012 44 44     100% 40   30.13 30.13 0 1  
Dec 08 20:38 7 7 Light Rain BKN012 OVC100 44 44     100% 40   30.11   0    
Dec 08 20:12   3 Rain and Fog/Mist SCT075 OVC095 43 43     100%     30.05   0    
Dec 08 19:53   2.5 Heavy Rain and Fog/Mist BKN060 OVC075 43 43     100%     30.07   0    
Dec 08 18:53 E 16 2.5 Heavy Rain and Fog/Mist BKN060 OVC070 43 42     97% 35   30.14 30.15 0    
Dec 08 17:53 ENE 9 4 Rain and Fog/Mist FEW020 SCT055 OVC070 43 41     93% 38   30.2 30.2 0   1
Dec 08 17:27 ENE 14 3 Rain and Fog/Mist SCT020 BKN055 OVC070 43 42     97% 36   30.16   0    
Dec 08 16:53 E 9 3 Rain and Fog/Mist OVC016 43 43     100% 38   30.19 30.19 0    
Dec 08 16:30 ENE 10 4 Light Rain and Fog/Mist OVC016 43 43     100% 37   30.19   0    
Dec 08 15:53 ENE 9 2 Rain and Fog/Mist OVC014 43 43     100% 38   30.18 30.18 0    
Dec 08 15:35 ENE 9 2 Light Rain and Fog/Mist OVC013 43 41     93% 38   30.2   0    
Dec 08 15:08 ENE 10 2 Rain and Fog/Mist BKN015 BKN055 OVC090 43 41     93% 37   30.19   0    
Dec 08 14:53 ENE 11 2 Light Rain and Fog/Mist SCT015 BKN060 OVC090 43 41     93% 37   30.19 30.19 0 0  
Dec 08 14:18 ENE 11 2 Rain and Fog/Mist SCT017 BKN055 OVC080 43 41     93% 37   30.21   0    
Dec 08 14:11 ENE 14 2 Rain and Fog/Mist BKN017 BKN049 OVC070 43 41     93% 36   30.22   0    
Dec 08 13:53 ENE 9 3 Light Rain and Fog/Mist OVC017 43 41     93% 38   30.24 30.24 0    
Dec 08 13:42 ENE 9 3 Rain and Fog/Mist OVC017 43 42     97% 38   30.26   0    
Dec 08 13:33 ENE 9 4 Rain and Fog/Mist BKN010 OVC014 43 41     93% 38   30.26   0    
Dec 08 12:53 E 8 2.5 Rain and Fog/Mist FEW009 OVC014 43 41     93% 38   30.27 30.27 0    
Dec 08 12:19 E 8 2.5 Light Rain and Fog/Mist OVC014 43 41     93% 38   30.29   0    
Dec 08 11:53 E 9 5 Light Rain and Fog/Mist FEW009 BKN017 OVC043 43 41     93% 38   30.3 30.3 0   0
Dec 08 11:32 E 11 5 Clear   43 41     93% 37   30.3   0    
Dec 08 11:13 E 10 5 Clear   43 41     93% 37   30.31   0    
Dec 08 10:53 E 10 5 Clear   43 41     93% 37   30.34 30.34 0    
May 15 04:53 Calm 10 Mostly Cloudy BKN065 70 68     93%     29.98 29.96      
May 14 10:53 N 8 10 Mostly Clear FEW050 88 64     45%   89 30.07 30.04      
May 11 20:53 S 8 10 Clear CLR 75 60     60%   75 30.05 30.03      
May 11 16:53 SW 11 10 Mostly Clear FEW090 89 57     34%   88 30.04 30.01      
Jun 12 04:53 SE 7 10 Partly Cloudy SCT025 72 70     93%   73 30.13 30.1      
Jun 11 22:53 ESE 3 10 Clear CLR 78 70     76%   79 30.12 30.09      
Jun 10 17:53 S 10 10 Partly Cloudy FEW060 SCT 85 61     45%   85 30.03 30.01      
Jun 09 19:53 W 3 10 Mostly Clear FEW080 77 60     56%   77   29.92      
Jun 08 19:53 NNW 6 10 Partly Cloudy SCT250 73 56     55%   73 29.89 29.87      
Jun 07 10:53 NE 17 10 Mostly Clear FEW050 FEW250 78 53     42%   78 29.89 29.87